Location: Aalen
(48.8330°N, 10.1000°E)
Time: 21:32:21
(UTC+02:00)

Transit 2A - Pass Details

Date: 04 August 2021
Orbit: 594 x 964 km, 66.7° (Epoch: 27 September)

Event Time Altitude Azimuth Distance (km) Brightness Sun altitude
Rises 07:13:24 0° 215° (SW) 2,840 8.5 10.9°
Reaches altitude 10° 07:15:34 10° 216° (SW) 1,962 7.7 11.2°
Maximum altitude 07:19:58 86° 303° (WNW) 647 5.9 11.9°
Drops below altitude 10° 07:24:45 10° 35° (NE) 2,132 9.2 12.7°
Sets 07:27:12 0° 36° (NE) 3,110 9.9 13.1°
